GW1238 Weather Reports


Display with metric or nautical units.
time (UTC)temp
F
wind
direction
speed
MPH
gust
MPH
rain 1hr
in
rain 24hr
in
rain mn
in
humidity
%
barometer
mb
20260504234257 74 177 8.0 10.0 0.00 0.00 0.00 55 1016.0
20260504233753 74 189 9.0 10.0 0.00 0.00 0.00 58 1016.1
20260504233249 74 198 7.0 11.0 0.00 0.00 0.00 56 1016.1
20260504232746 75 222 4.0 9.0 0.00 0.00 0.00 59 1016.1
20260504232243 75 189 9.0 11.0 0.00 0.00 0.00 60 1016.0
20260504231740 75 189 8.0 10.0 0.00 0.00 0.00 56 1016.0
20260504231236 76 186 9.0 10.0 0.00 0.00 0.00 59 1016.0
20260504230732 76 175 8.0 11.0 0.00 0.00 0.00 56 1016.2
20260504230231 76 183 7.0 10.0 0.00 0.00 0.00 60 1016.1
20260504225729 76 184 8.0 9.0 0.00 0.00 0.00 55 1016.1
20260504225225 76 168 9.0 10.0 0.00 0.00 0.00 54 1016.1
20260504224722 76 169 11.0 13.0 0.00 0.00 0.00 55 1015.9
20260504224220 76 163 10.0 14.0 0.00 0.00 0.00 56 1016.0
20260504223716 76 195 5.0 11.0 0.00 0.00 0.00 53 1015.9
20260504223211 77 175 9.0 9.0 0.00 0.00 0.00 56 1016.0
20260504222709 76 161 10.0 11.0 0.00 0.00 0.00 57 1016.0
20260504222206 77 175 10.0 11.0 0.00 0.00 0.00 55 1015.9
20260504221703 77 179 8.0 10.0 0.00 0.00 0.00 56 1016.0
20260504221200 77 181 7.0 9.0 0.00 0.00 0.00 55 1016.1
20260504220656 76 187 9.0 10.0 0.00 0.00 0.00 58 1016.1
20260504220154 76 201 4.0 7.0 0.00 0.00 0.00 53 1016.0
20260504215650 78 182 4.0 8.0 0.00 0.00 0.00 59 1016.1
20260504215148 78 206 6.0 7.0 0.00 0.00 0.00 60 1015.9
20260504214643 78 172 6.0 8.0 0.00 0.00 0.00 55 1016.0
20260504214140 77 173 7.0 10.0 0.00 0.00 0.00 55 1016.0
20260504213636 77 152 7.0 10.0 0.00 0.00 0.00 58 1016.1
20260504213133 77 169 5.0 7.0 0.00 0.00 0.00 54 1015.9
20260504212630 77 178 8.0 8.0 0.00 0.00 0.00 53 1015.9
20260504212127 77 161 9.0 9.0 0.00 0.00 0.00 56 1016.0
20260504211624 77 164 7.0 8.0 0.00 0.00 0.00 53 1016.1
20260504211120 77 187 6.0 8.0 0.00 0.00 0.00 53 1016.0
20260504210618 78 177 2.0 7.0 0.00 0.00 0.00 56 1016.1
20260504210114 78 185 2.0 4.0 0.00 0.00 0.00 51 1016.2
20260504205612 78 202 4.0 8.0 0.00 0.00 0.00 51 1016.3
20260504205110 78 180 5.0 7.0 0.00 0.00 0.00 50 1016.4
20260504204608 79 177 3.0 6.0 0.00 0.00 0.00 50 1016.3
20260504204106 78 187 6.0 8.0 0.00 0.00 0.00 55 1016.4
20260504203605 77 186 2.0 4.0 0.00 0.00 0.00 50 1016.3
20260504203102 78 175 4.0 6.0 0.00 0.00 0.00 51 1016.5
20260504202556 78 181 4.0 8.0 0.00 0.00 0.00 49 1016.4
20260504202054 78 176 8.0 9.0 0.00 0.00 0.00 55 1016.5
20260504201551 79 184 4.0 4.0 0.00 0.00 0.00 52 1016.5
20260504201049 78 207 4.0 6.0 0.00 0.00 0.00 52 1016.5
20260504200544 77 197 4.0 6.0 0.00 0.00 0.00 51 1016.9
20260504200042 78 254 3.0 6.0 0.00 0.00 0.00 50 1016.7
20260504195538 78 165 5.0 7.0 0.00 0.00 0.00 52 1016.8
20260504195034 79 156 0.0 1.0 0.00 0.00 0.00 48 1016.8
20260504194531 78 199 4.0 7.0 0.00 0.00 0.00 49 1016.9
20260504194026 77 196 4.0 6.0 0.00 0.00 0.00 51 1017.0
20260504193523 76 192 4.0 7.0 0.00 0.00 0.00 54 1017.0
20260504193022 77 189 5.0 6.0 0.00 0.00 0.00 52 1017.2
20260504192520 77 183 4.0 6.0 0.00 0.00 0.00 51 1017.4
20260504192018 77 161 2.0 9.0 0.00 0.00 0.00 47 1017.5
20260504191515 77 216 2.0 4.0 0.00 0.00 0.00 49 1017.4
20260504191011 76 185 3.0 8.0 0.00 0.00 0.00 50 1017.6
20260504190507 77 176 1.0 4.0 0.00 0.00 0.00 50 1017.6
20260504190003 76 182 3.0 4.0 0.00 0.00 0.00 50 1017.6
20260504185501 76 181 6.0 7.0 0.00 0.00 0.00 51 1017.6
20260504184957 76 159 2.0 7.0 0.00 0.00 0.00 49 1017.8
20260504184453 76 184 2.0 4.0 0.00 0.00 0.00 50 1017.6
20260504183948 76 164 3.0 6.0 0.00 0.00 0.00 51 1017.8
20260504183446 75 183 4.0 7.0 0.00 0.00 0.00 50 1017.9
20260504182944 76 187 6.0 7.0 0.00 0.00 0.00 57 1018.0
20260504182440 76 184 3.0 6.0 0.00 0.00 0.00 52 1017.9
20260504181938 76 167 3.0 4.0 0.00 0.00 0.00 51 1018.0
20260504181435 76 187 4.0 7.0 0.00 0.00 0.00 51 1018.2
20260504180933 75 187 4.0 6.0 0.00 0.00 0.00 51 1018.1
20260504180432 75 193 4.0 6.0 0.00 0.00 0.00 53 1018.2
20260504175930 75 203 4.0 7.0 0.00 0.00 0.00 51 1018.2
20260504175426 76 195 6.0 8.0 0.00 0.00 0.00 55 1018.2
20260504174924 75 180 3.0 3.0 0.00 0.00 0.00 51 1018.3
20260504174422 75 177 3.0 7.0 0.00 0.00 0.00 51 1018.3
20260504173919 74 174 3.0 8.0 0.00 0.00 0.00 52 1018.5
20260504173415 74 185 9.0 10.0 0.00 0.00 0.00 58 1018.4
20260504172913 74 192 5.0 6.0 0.00 0.00 0.00 58 1018.8
20260504172408 74 188 4.0 7.0 0.00 0.00 0.00 55 1018.8
20260504171905 73 195 3.0 7.0 0.00 0.00 0.00 53 1018.9
20260504171402 72 182 5.0 9.0 0.00 0.00 0.00 54 1018.9
20260504170859 72 187 5.0 7.0 0.00 0.00 0.00 56 1019.0
20260504170355 72 188 9.0 9.0 0.00 0.00 0.00 60 1018.9
20260504160314 69 189 7.0 8.0 0.00 0.00 0.00 59 1019.8
20260504150739 67 190 4.0 6.0 0.00 0.00 0.00 59 1020.5
20260504150236 67 202 1.0 3.0 0.00 0.00 0.00 58 1020.8
20260504141205 63 172 2.0 3.0 0.00 0.00 0.00 62 1021.0
20260504140703 62 187 2.0 3.0 0.00 0.00 0.00 65 1021.1
20260504140158 62 175 3.0 4.0 0.00 0.00 0.00 65 1021.2
20260504130626 59 162 1.0 4.0 0.00 0.00 0.00 70 1021.2
20260504130123 57 180 3.0 4.0 0.00 0.00 0.00 72 1021.1
20260504110514 47 296 2.0 3.0 0.00 0.00 0.00 97 1020.5
20260504100436 46 296 2.0 4.0 0.00 0.00 0.00 95 1020.5
20260504081829 47 294 2.0 4.0 0.00 0.00 0.00 92 1020.6
20260504081326 48 297 3.0 3.0 0.00 0.00 0.00 93 1020.4
20260504080822 47 295 2.0 4.0 0.00 0.00 0.00 92 1020.4
20260504080319 47 288 2.0 3.0 0.00 0.00 0.00 92 1020.4
20260504070246 49 299 2.0 3.0 0.00 0.00 0.00 90 1020.4
20260504060207 50 304 2.0 4.0 0.00 0.00 0.00 87 1021.0
20260504050635 52 297 2.0 3.0 0.00 0.00 0.00 79 1021.4
20260504050132 52 308 2.0 2.0 0.00 0.00 0.00 79 1021.0
20260504045629 53 301 2.0 3.0 0.00 0.00 0.00 79 1021.1
20260504045129 53 291 2.0 2.0 0.00 0.00 0.00 77 1021.0
20260504044627 54 301 2.0 2.0 0.00 0.00 0.00 76 1021.1
20260504044123 54 295 2.0 3.0 0.00 0.00 0.00 76 1021.3
20260504043621 54 304 2.0 3.0 0.00 0.00 0.00 74 1021.3
20260504043118 55 296 2.0 2.0 0.00 0.00 0.00 75 1021.1
20260504042615 55 305 1.0 2.0 0.00 0.00 0.00 75 1021.1
20260504042112 55 292 2.0 2.0 0.00 0.00 0.00 74 1021.0
20260504041607 55 290 2.0 2.0 0.00 0.00 0.00 74 1021.1
20260504041104 55 298 1.0 2.0 0.00 0.00 0.00 76 1021.4
20260504040601 55 296 1.0 2.0 0.00 0.00 0.00 75 1021.1
20260504040058 55 286 2.0 2.0 0.00 0.00 0.00 74 1021.3
20260504035555 55 282 2.0 3.0 0.00 0.00 0.00 75 1021.0
20260504035051 56 275 1.0 2.0 0.00 0.00 0.00 74 1021.3
20260504034549 56 283 1.0 2.0 0.00 0.00 0.00 73 1021.1
20260504034045 56 302 0.0 2.0 0.00 0.00 0.00 70 1021.2
20260504033544 56 293 1.0 2.0 0.00 0.00 0.00 73 1021.1
20260504033041 56 222 1.0 2.0 0.00 0.00 0.00 73 1021.0
20260504032538 56 209 1.0 2.0 0.00 0.00 0.00 71 1021.1
20260504032034 56 265 1.0 3.0 0.00 0.00 0.00 73 1021.1
20260504031531 56 267 1.0 2.0 0.00 0.00 0.00 74 1021.0
20260504031027 55 289 1.0 2.0 0.00 0.00 0.00 75 1021.0
20260504030525 55 281 2.0 2.0 0.00 0.00 0.00 77 1021.0
20260504030021 55 294 2.0 2.0 0.00 0.00 0.00 76 1021.1
20260504025518 55 294 2.0 3.0 0.00 0.00 0.00 74 1020.7
20260504025015 55 294 2.0 2.0 0.00 0.00 0.00 74 1020.8
20260504024512 55 279 2.0 3.0 0.00 0.00 0.00 75 1020.7
20260504024009 55 294 2.0 3.0 0.00 0.00 0.00 73 1020.5
20260504023505 55 295 2.0 2.0 0.00 0.00 0.00 75 1020.6
20260504023001 55 281 2.0 3.0 0.00 0.00 0.00 73 1020.6
20260504022457 55 292 2.0 3.0 0.00 0.00 0.00 75 1020.7
20260504021954 55 281 2.0 3.0 0.00 0.00 0.00 74 1020.7
20260504021452 55 278 2.0 3.0 0.00 0.00 0.00 75 1020.5
20260504020948 55 266 2.0 2.0 0.00 0.00 0.00 74 1020.7
20260504020445 55 291 3.0 3.0 0.00 0.00 0.00 74 1020.5
20260504015942 56 293 2.0 2.0 0.00 0.00 0.00 74 1020.6
20260504015438 56 284 2.0 4.0 0.00 0.00 0.00 75 1020.7
20260504014934 56 293 3.0 3.0 0.00 0.00 0.00 73 1020.5
20260504014430 56 289 2.0 2.0 0.00 0.00 0.00 73 1020.6
20260504013927 56 286 2.0 3.0 0.00 0.00 0.00 72 1020.6
20260504013426 56 307 2.0 3.0 0.00 0.00 0.00 73 1020.6
20260504012921 56 292 2.0 3.0 0.00 0.00 0.00 74 1020.4
20260504012420 56 290 2.0 3.0 0.00 0.00 0.00 72 1020.3
20260504011917 57 288 2.0 3.0 0.00 0.00 0.00 72 1020.1
20260504011413 57 289 2.0 3.0 0.00 0.00 0.00 72 1020.4
20260504010909 57 286 2.0 3.0 0.00 0.00 0.00 71 1020.1
20260504010405 57 291 2.0 3.0 0.00 0.00 0.00 70 1020.2
20260504005902 58 290 2.0 3.0 0.00 0.00 0.00 72 1020.2
20260504005358 58 295 2.0 3.0 0.00 0.00 0.00 71 1020.1
20260504004856 59 282 2.0 2.0 0.00 0.00 0.00 72 1019.9
20260504004353 59 276 2.0 2.0 0.00 0.00 0.00 72 1020.0
20260504003850 59 277 2.0 3.0 0.00 0.00 0.00 70 1019.9
20260504003347 59 295 2.0 3.0 0.00 0.00 0.00 69 1019.9
20260504002843 60 280 2.0 2.0 0.00 0.00 0.00 69 1019.9
20260504002340 60 290 2.0 2.0 0.00 0.00 0.00 68 1020.1
20260504001838 61 286 1.0 2.0 0.00 0.00 0.00 67 1019.8
20260504001335 62 288 2.0 2.0 0.00 0.00 0.00 69 1020.0
20260504000832 62 285 2.0 2.0 0.00 0.00 0.00 64 1020.0
20260504000329 62 288 2.0 2.0 0.00 0.00 0.00 66 1020.0
20260503235826 63 289 1.0 2.0 0.00 0.00 0.00 64 1019.9
20260503235324 64 270 1.0 3.0 0.00 0.00 0.00 64 1020.1
20260503234821 64 279 2.0 2.0 0.00 0.00 0.00 57 1019.8